This is the latest recevied weather packets stored in our database for station/object KF7SOJ. If no packets are shown the sender has not sent any weather packets the latest 10 day(s).
| Time | Temp. | Humidity | Pressure | Rain* | Wind** | Luminosity | Snow |
|---|---|---|---|---|---|---|---|
| 1777964042 | 3.89° C | 57% | 933 hPa | 0 mm | - | 0 W/m² | - |
| 1777963739 | 3.89° C | 57% | 933 hPa | 0 mm | - | 0 W/m² | - |
| 1777963436 | 3.33° C | 59% | 933.1 hPa | 0 mm | - | 0 W/m² | - |
| 1777963135 | 3.33° C | 59% | 933 hPa | 0 mm | - | 0 W/m² | - |
| 1777962835 | 3.33° C | 59% | 933 hPa | 0 mm | - | 0 W/m² | - |
| 1777962532 | 2.78° C | 58% | 932.9 hPa | 0 mm | - | 0 W/m² | - |
| 1777962230 | 3.33° C | 56% | 932.9 hPa | 0 mm | - | 0 W/m² | - |
| 1777961926 | 3.89° C | 54% | 932.7 hPa | 0 mm | - | 0 W/m² | - |
| 1777961625 | 3.89° C | 53% | 932.6 hPa | 0 mm | - | 0 W/m² | - |
| 1777961322 | 4.44° C | 52% | 932.5 hPa | 0 mm | - | 0 W/m² | - |
| 1777961018 | 5° C | 50% | 932.4 hPa | 0 mm | - | 0 W/m² | - |
| 1777960715 | 5° C | 49% | 932.3 hPa | 0 mm | - | 0 W/m² | - |
| 1777960410 | 5° C | 49% | 932.3 hPa | 0 mm | - | 0 W/m² | - |
| 1777960108 | 5° C | 47% | 932 hPa | 0 mm | - | 0 W/m² | - |
| 1777959805 | 6.11° C | 45% | 932 hPa | 0 mm | - | 0 W/m² | - |
| 1777959503 | 6.67° C | 43% | 932 hPa | 0 mm | - | 0 W/m² | - |
| 1777959200 | 6.11° C | 42% | 931.8 hPa | 0 mm | - | 0 W/m² | - |
| 1777958897 | 6.11° C | 43% | 931.8 hPa | 0 mm | - | 0 W/m² | - |
| 1777958594 | 6.67° C | 43% | 931.6 hPa | 0 mm | - | 0 W/m² | - |
| 1777958291 | 6.67° C | 42% | 931.6 hPa | 0 mm | - | 0 W/m² | - |
| 1777957988 | 7.22° C | 41% | 931.7 hPa | 0 mm | - | 0 W/m² | - |
| 1777957686 | 7.22° C | 40% | 931.8 hPa | 0 mm | - | 0 W/m² | - |
| 1777957385 | 7.22° C | 41% | 931.7 hPa | 0 mm | - | 0 W/m² | - |
| 1777957080 | 7.22° C | 41% | 931.6 hPa | 0 mm | - | 0 W/m² | - |
| 1777956778 | 7.78° C | 40% | 931.7 hPa | 0 mm | - | 0 W/m² | - |
* Rain latest hour (hover to see other rain measurements)
** Current wind speed in m/s (hover to see current wind gust speed)